{"data":{"norad_id":81069,"intl_designator":"","name":"UNKNOWN","alt_names":[],"object_type":"UNKNOWN","status":"UNKNOWN","operator":null,"country":null,"launch_date":null,"launch_site_code":null,"launch_vehicle":null,"mission":null,"orbit_class":"UNKNOWN","rcs_meters":null,"size_class":null,"mass_kg":null,"dimensions":null,"purposes":[],"wikipedia_slug":null,"has_3d_model":false,"image_url":null,"decayed_at":null,"tle_current":{"epoch":"2026-09-16T00:45:52.208928Z","epoch_age_seconds":400358,"freshness":"STALE","line1":"1 81069U          26259.03185427  .00002751  00000+0  35633-2 0  9994","line2":"2 81069 100.3778 182.3751 0067420  76.4392 284.4245 13.62250637553668","mean_motion":13.62250637,"eccentricity":0.006742,"inclination_deg":100.3778,"raan_deg":182.3751,"arg_perigee_deg":76.4392,"mean_anomaly_deg":284.4245,"bstar":0.0035633,"rev_number":55366,"period_min":105.7074198307,"perigee_km":977.59503734076,"apogee_km":1077.4529703164,"semimajor_km":7405.6610038286,"source":"CELESTRAK","updated_at":"2026-09-20T09:00:32.383061Z"}}}